• Join FlightAware (Why Join?)
  • Login
  • US Flag 
12:02AM EST


 

Airport Tracker/Info


-or-


 

Live Flight TrackerFlight Track Log ✈ SKW5550 ✈ 17-Oct-2013 ✈ KCOD - KDEN

Flight Track Log - Related Links

Times and Time Zones

All times are in EDT time to prevent confusion due to time zone crossing. See the SKW5550 flight status page for this flight to view local times or setup timezone preferences in your user account.

Time Position Orientation Groundspeed Altitude Reporting Facility
EDT Latitude Longitude Course Direction KTS MPH feet Rate Location/Type
09:55AM 44.5022 -109.0581 156° South 157 181 6,100  Level Salt Lake Center
09:56AM 44.4764 -109.0214 135° Southeast 194 223 8,400 2,634 Climbing Salt Lake Center
09:57AM 44.2342 -108.7324 157° South  Level Estimated
09:57AM 44.5425 -108.9919 18° North 210 242 11,500  Level Salt Lake Center
09:58AM 44.1250 -108.6700 158° South  Level FlightAware Approximate
09:58AM 44.5558 -108.9058 78° East 248 285 13,700  Level Salt Lake Center
09:59AM 44.0299 -108.5730 157° South  Level Estimated
09:59AM 44.4736 -108.8678 162° South 308 354 15,300  Level Salt Lake Center
10:00AM 43.9185 -108.5189 161° South  Level FlightAware Approximate
10:00AM 44.3828 -108.8283 163° South 335 386 16,600  Level Salt Lake Center
10:01AM 43.8237 -108.4217 156° South  Level Estimated
10:01AM 44.2875 -108.7747 158° South 360 414 18,600  Level Salt Lake Center
10:02AM 44.1908 -108.7183 157° South 371 427 20,500 1,756 Climbing Salt Lake Center
10:03AM 44.0944 -108.6625 157° South 375 432 22,200 1,268 Climbing Salt Lake Center
10:04AM 43.9844 -108.5606 146° Southeast 399 459 23,100 683 Climbing Salt Lake Center
10:05AM 43.8850 -108.4658 146° Southeast 429 494 23,600 537 Climbing Salt Lake Center
10:07AM 43.7808 -108.3675 146° Southeast 450 518 24,200 780 Climbing Salt Lake Center
10:08AM 43.6753 -108.2667 145° Southeast 460 529 25,200 976 Climbing Salt Lake Center
10:09AM 43.5700 -108.1669 146° Southeast 461 531 26,200 829 Climbing Salt Lake Center
10:10AM 43.4631 -108.0653 145° Southeast 467 537 26,900 585 Climbing Salt Lake Center
10:11AM 43.3544 -107.9614 145° Southeast 476 548 27,400 488 Climbing Salt Lake Center
10:12AM 43.2431 -107.8578 146° Southeast 483 556 27,900 780 Climbing Salt Lake Center
10:13AM 43.1097 -107.7322 145° Southeast 487 560 29,000 878 Climbing Salt Lake Center
10:14AM 43.0011 -107.6306 146° Southeast 478 550 29,700 585 Climbing Salt Lake Center
10:15AM 42.8969 -107.5361 146° Southeast 477 549 30,200 488 Climbing Salt Lake Center
10:16AM 42.7733 -107.4206 146° Southeast 480 552 30,700 390 Climbing Salt Lake Center
10:17AM 42.6661 -107.3236 146° Southeast 482 555 31,000 145 Climbing Salt Lake Center
10:18AM 42.5408 -107.2089 146° Southeast 487 560 31,000  Level Salt Lake Center
10:19AM 42.4306 -107.1094 146° Southeast 492 566 31,000  Level Salt Lake Center
10:20AM 42.3219 -107.0094 146° Southeast 493 567 31,000  Level Salt Lake Center
10:21AM 42.1964 -106.8975 147° Southeast 487 560 31,000  Level Salt Lake Center
10:22AM 42.0894 -106.8011 146° Southeast 484 557 31,000  Level Salt Lake Center
10:23AM 41.9658 -106.6917 147° Southeast 479 551 31,000  Level Salt Lake Center
10:24AM 41.8600 -106.6006 147° Southeast 477 549 31,000  Level Salt Lake Center
10:25AM 41.7369 -106.4906 146° Southeast 478 550 31,000  Level Salt Lake Center
10:26AM 41.6308 -106.3975 147° Southeast 478 550 31,000  Level Salt Lake Center
10:27AM 41.5231 -106.3019 146° Southeast 479 551 31,000  Level Salt Lake Center
10:29AM 41.3333 -106.1925 157° South 471 542 31,000  Level Denver Center
10:30AM 41.2153 -106.1411 162° South 466 536 31,000  Level Denver Center
10:31AM 41.0794 -106.0761 160° South 466 536 31,000  Level Denver Center
10:32AM 40.9636 -106.0094 157° South 471 542 31,000 -1,065 Level Denver Center
10:33AM 40.8600 -105.9033 142° Southeast 494 568 28,800 -2,226 Descending Denver Center
10:34AM 40.7825 -105.7639 126° Southeast 477 549 26,400 -2,371 Descending Denver Center
10:35AM 40.6958 -105.6058 126° Southeast 449 517 23,900 -2,226 Descending Denver Center
10:36AM 40.6281 -105.4814 126° Southeast 425 489 21,800 -1,887 Descending Denver Center
10:37AM 40.5622 -105.3642 126° Southeast 405 466 20,000 -1,500 Descending Denver Center
10:38AM 40.4992 -105.2564 128° Southeast 381 438 18,700 -1,344 Descending Denver Center
10:39AM 40.4183 -105.1550 136° Southeast 365 420 17,200 -1,632 Descending Denver Center
10:40AM 40.3503 -105.0672 135° Southeast 344 396 15,300 -1,645 Descending Denver Center
10:41AM 40.3022 -104.9792 126° Southeast 304 350 13,800 -1,306 Descending Denver Center
10:42AM 40.2839 -104.8767 103° East 271 312 12,600 -1,113 Descending Denver Center
10:43AM 40.2292 -104.8147 139° Southeast 265 305 11,500 -1,161 Descending Denver Center
10:44AM 40.1625 -104.7619 149° Southeast 261 300 10,200 -1,113 Descending Denver Center
10:45AM 40.1069 -104.7192 150° Southeast 235 270 9,200 -871 Descending Denver Center
10:46AM 40.0506 -104.6953 162° South 198 228 8,400 -726 Descending Denver Center
10:47AM 39.9986 -104.6953 180° South 187 215 7,700 -919 Descending Denver Center
10:48AM 39.9472 -104.6964 181° South 185 213 6,500 -1,016 Descending Denver Center
10:49AM 39.9022 -104.6958 179° South 155 178 5,600 -871 Descending Denver Center